PAGEOS 1 DEB, 2511

Orbit data source: Space-Track

PAGEOS 1 DEB, 2511 is space debris in LEO originally from a launch on Fri, 24 Jun 1966 UTC launched from the Air Force Western Test Range (AFWTR). Debris objects in space refer to the collection of defunct objects orbiting the Earth. Examples of debris include non-operational satellites, rocket bodies, and fragments generated from explosions, collisions, or faulty payload assembly.

Loading next visibility...
Identifier
2511, 1966-056D
Orbit
LEO
Country
Flag of USUS
Related business
Manufacturer
Goodyear
Mission
Spacecraft
Bus & Motor
ECHO CANISTER, Unknown motor
Mass
9 kg wet, 9 kg dry
Launch date (UTC)
1966-06-24 (59 years ago)
Launch vehicle
Unknown
Launch site
Air Force Western Test Range (AFWTR)
Object type
Payload
Rocket body
Debris
Shape & HBR
Half Sphere, Unknown HBR
Radar Cross Section
0.377 m², Large (>1 m²)

Expand to show TLE details & history
Last TLE update: 4 days ago

TLE from 4 days ago
0 PAGEOS 1 DEB
1 02511U 66056D   25257.42712959 -.00000013  00000-0 -14404-1 0  9992
2 02511  86.9771 248.9193 0011247  53.3020 306.8818  7.93368003330710
Epoch: 2025-09-14T10:15Z
TLE epoch observation values (Epoch: 2025-09-14T10:15:03.996Z)
Latitude
-0.00003°
Longitude
101.50635°
Altitude
4,235.807 km
Speed
6.131 km/s
True Right ascension
16h 35m 40s
True Declination
0° 00' 00"
Sunlit
Object was in daylight at epoch
Visualization orbit readout
Latitude
Unknown
Longitude
Unknown
Altitude
Unknown
Speed
Unknown
Apparent Right ascension
Unknown
Apparent Declination
Unknown
Sunlit
N/A
Visualization observer readout
Local Sidereal Time
23:17:04
Azimuth
Unknown
Elevation
Unknown
Doppler factor
Unknown
Orbital elements
Apogee altitude
4,250.798 km
Perigee altitude
4,226.916 km
Semi-major axis
10,616.994 km
Eccentricity
0.00112
Inclination
86.9771°
RAAN
248.9193°
Arg. of periapsis
53.302°
True anomaly
306.77862°
Mean anomaly
306.8818°
Eccentric anomaly
306.83022°
Mean motion
1.984 °/min
Orbital period
181.45 mins
BSTAR
-0.014404
Loading maneuver chart data...
Computing Atmospheric mass density...

Documentation

Showing up to 5 results
|